Location: Molveno
(46.1500°N, 10.9667°E)
Time: 07:41:08
(UTC+00:00)

Cosmos 405 - Pass Details

Date: 05 July 2020
Orbit: 450 x 465 km, 81.3° (Epoch: 05 August)

Event Time Altitude Azimuth Distance (km) Brightness Sun altitude
Rises 23:23:17 0° 350° (N) 2,507 8.1 -21.2°
Reaches altitude 10° 23:25:23 10° 352° (N) 1,625 6.9 -21.2°
Enters shadow 23:28:55 79° 73° (ENE) 478 2.9 -21.2°
